Weather History for KELM - November, 2011

Change the Weather History Date:

Wednesday, November 30, 2011

  Actual Average Record
Temperature  
Mean Temperature 40 °F -  
Max Temperature 48 °F 41 °F 66 °F (1998)
Min Temperature 32 °F 27 °F 3 °F (1976)
Degree Days  
Heating Degree Days 25    
Moisture  
Dew Point 32 °F    
Average Humidity 75    
Maximum Humidity 87    
Minimum Humidity 60    
Precipitation  
Precipitation 0.13 in - - ()
Sea Level Pressure  
Sea Level Pressure 29.69 in    
Wind  
Wind Speed 9 mph (WSW)    
Max Wind Speed 16 mph    
Max Gust Speed 31 mph    
Visibility 10 miles    
Events Rain    
Averages and records for this station are not official NWS values.
T = Trace of Precipitation, MM = Missing Value Source: NWS Daily Summary

Daily Weather History Graph

Daily Weather History Graph

Search for Another Location

Airport or City:

Trip Planner

Search our weather history database for the weather conditions in past years. The results will help you decide how hot, cold, wet, or windy it might be!

Date:

Astronomy

Nov. 30, 2011 Rise Set
Actual Time 7:15 AM EST 4:36 PM EST
Civil Twilight 6:43 AM EST 5:08 PM EST
Nautical Twilight 6:09 AM EST 5:42 PM EST
Astronomical Twilight 5:35 AM EST 6:16 PM EST
Moon 11:28 AM EST (11/30) 10:35 PM EST (11/30)
Length of Visible Light 10h 24m
Length of Day
9h 21m
Waxing Crescent, 33% of the Moon is Illuminated
Nov 30
Waxing Crescent
Dec 2
First Quarter
Dec 10
Full
Dec 17
Last Quarter
Dec 24
New

Hourly Weather History & Observations

Time (EST) Temp. Windchill Dew Point Humidity Pressure Visibility Wind Dir Wind Speed Gust Speed Precip Events Conditions
12:53 AM 48.0 °F - 41.0 °F 77% 29.49 in 10.0 mi SSW 4.6 mph - N/A   Overcast
1:25 AM 46.4 °F 41.5 °F 41.0 °F 81% 29.49 in 6.0 mi WSW 10.4 mph - 0.02 in Rain Rain
1:48 AM 44.6 °F 40.7 °F 41.0 °F 87% 29.49 in 9.0 mi West 6.9 mph - 0.05 in Rain Light Rain
1:53 AM 45.0 °F 39.7 °F 39.9 °F 82% 29.49 in 10.0 mi West 10.4 mph - 0.05 in Rain Light Rain
2:28 AM 44.6 °F 40.2 °F 41.0 °F 87% 29.51 in 6.0 mi SW 8.1 mph - 0.01 in Rain Rain
2:53 AM 43.0 °F 35.4 °F 37.9 °F 82% 29.52 in 10.0 mi WSW 16.1 mph 31.1 mph 0.04 in Rain Light Rain
3:53 AM 39.9 °F 32.5 °F 36.0 °F 86% 29.56 in 10.0 mi WSW 12.7 mph - 0.04 in Rain Light Rain
4:03 AM 39.2 °F 32.0 °F 35.6 °F 87% 29.55 in 10.0 mi WSW 11.5 mph - 0.00 in   Overcast
4:53 AM 39.0 °F 33.4 °F 34.0 °F 82% 29.53 in 10.0 mi WSW 8.1 mph - 0.00 in   Scattered Clouds
5:32 AM 39.2 °F 34.2 °F 33.8 °F 81% 29.54 in 10.0 mi WSW 6.9 mph - N/A   Mostly Cloudy
5:53 AM 37.9 °F 33.5 °F 34.0 °F 86% 29.56 in 10.0 mi WSW 5.8 mph - N/A   Overcast
6:53 AM 39.0 °F 32.3 °F 34.0 °F 82% 29.57 in 10.0 mi SSW 10.4 mph - N/A   Overcast
7:53 AM 39.2 °F 32.0 °F 33.8 °F 81% 29.58 in 10.0 mi SW 11.5 mph - N/A   Overcast
8:19 AM 39.2 °F 31.6 °F 33.8 °F 81% 29.59 in 10.0 mi WSW 12.7 mph - N/A   Overcast
8:53 AM 39.9 °F 33.9 °F 34.0 °F 79% 29.62 in 10.0 mi SW 9.2 mph - N/A   Overcast
9:37 AM 39.2 °F 32.5 °F 33.8 °F 81% 29.62 in 10.0 mi WSW 10.4 mph - 0.00 in   Overcast
9:53 AM 41.0 °F 33.9 °F 32.0 °F 70% 29.63 in 10.0 mi WSW 12.7 mph - 0.00 in   Overcast
10:04 AM 41.0 °F 33.9 °F 32.0 °F 70% 29.62 in 10.0 mi SW 12.7 mph - N/A   Overcast
10:53 AM 42.8 °F 37.0 °F 33.8 °F 70% 29.62 in 10.0 mi SW 10.4 mph - N/A   Overcast
11:53 AM 43.0 °F 36.0 °F 30.9 °F 62% 29.64 in 10.0 mi WSW 13.8 mph 20.7 mph N/A   Overcast
12:53 PM 43.0 °F 35.4 °F 30.0 °F 60% 29.63 in 10.0 mi WSW 16.1 mph 26.5 mph 0.00 in   Overcast
1:53 PM 43.0 °F 35.4 °F 30.9 °F 62% 29.65 in 10.0 mi WSW 16.1 mph - N/A   Mostly Cloudy
2:53 PM 41.0 °F 33.1 °F 28.9 °F 62% 29.70 in 10.0 mi West 15.0 mph - 0.00 in   Overcast
3:53 PM 39.9 °F 32.1 °F 28.9 °F 65% 29.74 in 10.0 mi West 13.8 mph 26.5 mph N/A   Overcast
4:53 PM 37.9 °F 30.9 °F 28.0 °F 68% 29.80 in 10.0 mi West 10.4 mph - N/A   Overcast
5:15 PM 37.4 °F 29.3 °F 28.4 °F 70% 29.79 in 10.0 mi West 12.7 mph - N/A   Overcast
5:53 PM 37.9 °F 28.9 °F 30.0 °F 73% 29.85 in 10.0 mi WNW 16.1 mph 27.6 mph N/A   Overcast
6:53 PM 37.9 °F 30.9 °F 28.9 °F 70% 29.91 in 10.0 mi West 10.4 mph 23.0 mph N/A   Overcast
7:33 PM 35.6 °F 29.9 °F 26.6 °F 70% 29.92 in 9.0 mi WNW 6.9 mph - 0.00 in   Scattered Clouds
7:53 PM 35.1 °F - 25.0 °F 67% 29.96 in 10.0 mi Calm Calm - 0.00 in   Clear
8:53 PM 33.1 °F 26.9 °F 21.9 °F 64% 29.99 in 10.0 mi WSW 6.9 mph - N/A   Clear
9:53 PM 32.0 °F 23.0 °F 24.8 °F 75% 30.00 in 10.0 mi WNW 11.5 mph - N/A   Clear
10:53 PM 32.0 °F 27.5 °F 24.1 °F 73% 30.07 in 10.0 mi WNW 4.6 mph - N/A   Clear
11:53 PM 33.8 °F - 23.0 °F 65% 30.07 in 10.0 mi Calm Calm - N/A   Clear